Weather History for KBGM - April, 2014

Change the Weather History Date:

Monday, April 7, 2014

  Actual Average Record
Temperature  
Mean Temperature 39 °F 42 °F  
Max Temperature 45 °F 50 °F 83 °F (1991)
Min Temperature 33 °F 33 °F 9 °F (1982)
Degree Days  
Heating Degree Days 26 23  
Month to date heating degree days 174 173  
Since 1 July heating degree days 6845 6369  
Cooling Degree Days 0 0  
Month to date cooling degree days 0 0  
Year to date cooling degree days 0 0  
Moisture  
Dew Point 29 °F    
Average Humidity 65    
Maximum Humidity 93    
Minimum Humidity 36    
Precipitation  
Precipitation 0.26 in 0.12 in 0.99 in (1956)
Month to date precipitation 0.46 0.82  
Year to date precipitation 8.83 8.57  
Snow  
Snow T in 0.10 in 6.10 in (1996)
Month to date snowfall T 1.5  
Since 1 July snowfall 84.4 80.5  
Snow Depth 0.00 in    
Sea Level Pressure  
Sea Level Pressure 29.93 in    
Wind  
Wind Speed 11 mph (SE)    
Max Wind Speed 30 mph    
Max Gust Speed 37 mph    
Visibility 8 miles    
Events Rain    
T = Trace of Precipitation, MM = Missing Value Source: NWS Daily Summary

Daily Weather History Graph

Daily Weather History Graph

Search for Another Location

Airport or City:

Trip Planner

Search our weather history database for the weather conditions in past years. The results will help you decide how hot, cold, wet, or windy it might be!

Date:

Astronomy

Apr. 07, 2014 Rise Set
Actual Time 6:36 AM EDT 7:36 PM EDT
Civil Twilight 6:07 AM EDT 8:05 PM EDT
Nautical Twilight 5:33 AM EDT 8:39 PM EDT
Astronomical Twilight 4:58 AM EDT 9:14 PM EDT
Moon 12:27 PM EDT (4/7) 2:15 AM EDT (4/7)
Length of Visible Light 13h 57m
Length of Day
13h 00m
First Quarter, 53% of the Moon is Illuminated
Apr 7
First Quarter
Apr 15
Full
Apr 22
Last Quarter
Apr 29
New
May 6
First Quarter

Hourly Weather History & Observations

Time (EDT) Temp. Windchill Dew Point Humidity Pressure Visibility Wind Dir Wind Speed Gust Speed Precip Events Conditions
12:53 AM 42.1 °F 40.2 °F 18.0 °F 38% 30.16 in 10.0 mi South 3.5 mph - N/A   Clear
1:53 AM 41.0 °F 38.0 °F 19.0 °F 41% 30.13 in 10.0 mi SSE 4.6 mph - N/A   Clear
2:53 AM 39.0 °F 36.8 °F 19.0 °F 45% 30.12 in 10.0 mi SSE 3.5 mph - N/A   Clear
3:53 AM 36.0 °F 32.1 °F 19.9 °F 52% 30.12 in 10.0 mi SSE 4.6 mph - N/A   Clear
4:53 AM 37.0 °F 34.5 °F 19.0 °F 48% 30.11 in 10.0 mi SE 3.5 mph - N/A   Clear
5:53 AM 35.1 °F 30.1 °F 19.9 °F 54% 30.09 in 10.0 mi SE 5.8 mph - N/A   Clear
6:53 AM 34.0 °F 28.8 °F 21.0 °F 59% 30.10 in 10.0 mi SE 5.8 mph - N/A   Clear
7:53 AM 35.1 °F 30.1 °F 23.0 °F 61% 30.11 in 10.0 mi SE 5.8 mph - N/A   Clear
8:53 AM 37.9 °F 32.7 °F 23.0 °F 55% 30.09 in 10.0 mi SE 6.9 mph - N/A   Clear
9:53 AM 43.0 °F 37.7 °F 21.9 °F 43% 30.09 in 10.0 mi SSE 9.2 mph - N/A   Partly Cloudy
10:53 AM 45.0 °F 38.9 °F 19.0 °F 36% 30.08 in 10.0 mi SSE 12.7 mph - N/A   Clear
11:53 AM 45.0 °F 39.3 °F 19.9 °F 37% 30.06 in 10.0 mi South 11.5 mph 18.4 mph 0.00 in   Overcast
12:53 PM 42.1 °F 34.5 °F 28.0 °F 58% 30.05 in 7.0 mi South 15.0 mph 25.3 mph 0.00 in Rain Light Rain
1:53 PM 39.0 °F 33.4 °F 32.0 °F 76% 30.01 in 9.0 mi SSE 8.1 mph 18.4 mph 0.03 in Rain Light Rain
2:53 PM 39.9 °F 36.7 °F 30.9 °F 70% 29.98 in 10.0 mi South 4.6 mph - 0.01 in Rain Light Rain
3:53 PM 39.2 °F 37.0 °F 30.2 °F 70% 29.92 in 10.0 mi East 3.5 mph - N/A Rain Light Rain
4:53 PM 37.0 °F 32.4 °F 34.0 °F 89% 29.92 in 6.0 mi ENE 5.8 mph - 0.05 in Rain Light Rain
5:13 PM 37.4 °F 32.1 °F 35.6 °F 93% 29.87 in 5.0 mi ENE 6.9 mph - 0.02 in Rain Light Rain
5:53 PM 37.0 °F 30.4 °F 34.0 °F 89% 29.89 in 3.0 mi ESE 9.2 mph - 0.12 in Rain Rain
6:53 PM 37.0 °F 28.1 °F 33.1 °F 86% 29.84 in 7.0 mi ESE 15.0 mph - 0.03 in Rain Light Rain
7:28 PM 35.6 °F 25.2 °F 33.8 °F 93% 29.76 in 2.5 mi ESE 18.4 mph 24.2 mph 0.01 in Rain Light Rain
7:31 PM 35.6 °F 25.2 °F 33.8 °F 93% 29.75 in 2.5 mi ESE 18.4 mph 24.2 mph 0.01 in Rain Light Rain
7:46 PM 35.6 °F 25.2 °F 35.6 °F 100% 29.73 in 4.0 mi ESE 18.4 mph - 0.01 in   Overcast
7:53 PM 36.0 °F 25.6 °F 35.1 °F 97% 29.77 in 5.0 mi ESE 18.4 mph - 0.01 in   Overcast
8:53 PM 37.0 °F 26.4 °F 36.0 °F 96% 29.73 in 10.0 mi SE 20.7 mph 28.8 mph N/A   Overcast
9:43 PM 39.2 °F 29.3 °F 37.4 °F 93% 29.65 in 10.0 mi SE 20.7 mph 32.2 mph N/A   Overcast
9:53 PM 39.0 °F 28.5 °F 37.0 °F 93% 29.66 in 10.0 mi SE 23.0 mph 31.1 mph N/A   Overcast
10:53 PM 41.0 °F 31.4 °F 39.0 °F 93% 29.60 in 10.0 mi SE 21.9 mph 31.1 mph N/A   Overcast
11:18 PM 41.0 °F 32.5 °F 39.2 °F 93% 29.57 in 10.0 mi SE 17.3 mph - N/A   Overcast
11:53 PM 42.1 °F 33.6 °F 39.9 °F 92% 29.57 in 10.0 mi SSE 18.4 mph 24.2 mph N/A   Overcast